Flag for Canada Weather past 2 weeks in Richmond, British Columbia, Canada

Now
75 °F

Sunny.


Feels Like: 78 °F
Forecast: 64 / 79 °F
Wind: 10 mph from Northwest

Location: Vancouver International Air-Port

Current Time: Jul 3, 2015 at 7:02:15 PM

Latest Report: Jul 3, 2015 at 6:00 PM


Visibility: 30 mi

Pressure: 29.84 "Hg

Humidity: 50%

Dew point: 55 °F

Location of RichmondLocation

Historic Weather in Richmond — Graph

°F

Richmond temperature yesterday

Maximum temperature yesterday: 75 °F (at 2:00 PM)
Minimum temperature yesterday: 64 °F (at 5:00 AM)
Average temperature yesterday: 70 °F

Past Weeks' High & Low Weather Summary

 TemperatureHumidityPressure
High81 °F (Jun 29, 12:00 PM)94% (Jun 18, 10:00 PM)30.15 "Hg (Jun 18, 10:00 PM)
Low54 °F (Jun 19, 5:00 AM)40% (Jun 23, 9:00 PM)29.86 "Hg (Jul 3, 5:00 PM)
Average68 °F69%30.02 "Hg
* Reported Jun 18 5:00 PM — Jul 3 5:00 PM, Richmond, Weather by CustomWeather, © 2015

Note: Actual official high and low records may vary slightly from our data, if they occured in-between our weather recording intervals... More about our weather records

Advertising

Richmond weather history for previous 24 hours

 ConditionsComfort  
Time TempWeatherWind HumidityBarometerVisibility
5:00 PM
Fri, Jul 3
75 °FSunny.15 mph50%29.86 "Hg30 mi
4:00 PM75 °FSunny.14 mph50%29.88 "Hg30 mi
3:00 PM75 °FSunny.16 mph54%29.90 "Hg30 mi
2:00 PM75 °FSunny.20 mph50%29.92 "Hg30 mi
1:00 PM73 °FSunny.20 mph53%29.93 "Hg30 mi
12:00 PM72 °FPassing clouds.18 mph61%29.95 "Hg30 mi
11:00 AM70 °FPassing clouds.21 mph64%29.96 "Hg30 mi
10:00 AM70 °FPassing clouds.18 mph64%29.96 "Hg30 mi
9:00 AM68 °FSunny.16 mph73%29.96 "Hg30 mi
8:00 AM66 °FSunny.15 mph78%29.96 "Hg30 mi
7:00 AM64 °FSunny.15 mph83%29.96 "Hg30 mi
6:00 AM63 °FClear.13 mph88%29.95 "Hg30 mi
5:00 AM63 °FClear.10 mph83%29.94 "Hg30 mi
4:00 AM64 °FClear.13 mph83%29.93 "Hg30 mi
3:00 AM64 °FPassing clouds.18 mph83%29.92 "Hg30 mi
2:00 AM64 °FPassing clouds.13 mph83%29.93 "Hg30 mi
1:00 AM66 °FPassing clouds.13 mph78%29.92 "Hg30 mi
12:00 AM66 °FPassing clouds.10 mph78%29.91 "Hg30 mi
11:00 PM
Thu, Jul 2
68 °FPassing clouds.14 mph73%29.90 "Hg30 mi
10:00 PM70 °FPartly sunny.17 mph69%29.90 "Hg30 mi
9:00 PM70 °FPartly sunny.15 mph64%29.90 "Hg30 mi
8:00 PM72 °FPassing clouds.16 mph65%29.90 "Hg30 mi
7:00 PM73 °FPassing clouds.14 mph61%29.92 "Hg30 mi
Weather by CustomWeather, © 2015

See weather overviewHow to use our weather pages